Location: Unspecified
(0.0000°N, 0.0000°E)
Time: 21:06:34
(UTC+00:00)

Amsat-Oscar-6 - Pass Details

Date: 29 April 2019
Orbit: 1448 x 1455 km, 101.8° (Epoch: 19 May)

Event Time Altitude Azimuth Distance (km) Brightness Sun altitude
Rises 04:11:07 0° 355° (N) 4,533 ? -25.7°
Reaches altitude 10° 04:14:14 10° 346° (NNW) 3,557 ? -24.9°
Maximum altitude 04:21:21 32° 287° (WNW) 2,265 ? -23.2°
Enters shadow 04:21:41 32° 282° (WNW) 2,269 ? -23.1°
